This is the latest recevied weather packets stored in our database for station/object AI5KP-13. If no packets are shown the sender has not sent any weather packets the latest 10 day(s).
| Time | Temp. | Humidity | Pressure | Rain* | Wind** | Luminosity | Snow |
|---|---|---|---|---|---|---|---|
| 1777751269 | 19.44° C | 42% | 1019.6 hPa | 0 mm | - | 648 W/m² | - |
| 1777750967 | 18.89° C | 42% | 1019.6 hPa | 0 mm | - | 660 W/m² | - |
| 1777750662 | 20° C | 41% | 1019.6 hPa | 0 mm | - | 663 W/m² | - |
| 1777750360 | 20° C | 41% | 1019.6 hPa | 0 mm | - | 668 W/m² | - |
| 1777750060 | 18.89° C | 48% | 1020 hPa | 0 mm | - | 675 W/m² | - |
| 1777749758 | 20° C | 44% | 1019.7 hPa | 0 mm | - | 687 W/m² | - |
| 1777749454 | 20° C | 42% | 1019.9 hPa | 0 mm | - | 679 W/m² | - |
| 1777749152 | 19.44° C | 42% | 1019.9 hPa | 0 mm | - | 689 W/m² | - |
| 1777748849 | 20° C | 40% | 1019.9 hPa | 0 mm | - | 707 W/m² | - |
| 1777748547 | 19.44° C | 42% | 1020 hPa | 0 mm | - | 713 W/m² | - |
| 1777748247 | 19.44° C | 42% | 1019.9 hPa | 0 mm | - | 723 W/m² | - |
| 1777747943 | 19.44° C | 42% | 1019.8 hPa | 0 mm | - | 718 W/m² | - |
| 1777747640 | 20° C | 43% | 1019.8 hPa | 0 mm | - | 719 W/m² | - |
| 1777747335 | 19.44° C | 41% | 1020 hPa | 0 mm | - | 739 W/m² | - |
| 1777747032 | 19.44° C | 41% | 1020 hPa | 0 mm | - | 734 W/m² | - |
| 1777746728 | 19.44° C | 39% | 1019.9 hPa | 0 mm | - | 738 W/m² | - |
| 1777746423 | 20° C | 42% | 1020 hPa | 0 mm | - | 736 W/m² | - |
| 1777746119 | 19.44° C | 43% | 1020.2 hPa | 0 mm | - | 735 W/m² | - |
| 1777745817 | 18.89° C | 43% | 1020.2 hPa | 0 mm | - | 734 W/m² | - |
| 1777745516 | 18.89° C | 41% | 1020.3 hPa | 0 mm | - | 734 W/m² | - |
| 1777745212 | 18.89° C | 43% | 1020.3 hPa | 0 mm | - | 739 W/m² | - |
| 1777744910 | 18.89° C | 42% | 1020.4 hPa | 0 mm | - | 742 W/m² | - |
| 1777744609 | 19.44° C | 45% | 1020.4 hPa | 0 mm | - | 741 W/m² | - |
| 1777744305 | 18.89° C | 46% | 1020.3 hPa | 0 mm | - | 746 W/m² | - |
| 1777744002 | 19.44° C | 48% | 1020.3 hPa | 0 mm | - | 567 W/m² | - |
* Rain latest hour (hover to see other rain measurements)
** Current wind speed in m/s (hover to see current wind gust speed)